Regional Weather Roundup
Issued by NWS Upton, NY

Current Version | Previous Version | Text Only | Print | Product List | Glossary On
Versions: 1 2 3 4 5 6 7 8 9 10 11 12 13 14 15 16 17 18 19 20 21 22 23 24 25 26 27
000
ASUS41 KOKX 100408
RWROKX

REGIONAL WEATHER ROUNDUP
NATIONAL WEATHER SERVICE NEW YORK NY
1100 PM EST SAT DEC 09 2017

NOTE: "FAIR" INDICATES FEW OR NO CLOUDS BELOW 12,000 FEET WITH NO
SIGNIFICANT WEATHER AND/OR OBSTRUCTIONS TO VISIBILITY.

NYZ071-072-176-178-NJZ106-104-100500-
NEW YORK CITY METRO AREA

CITY           SKY/WX    TMP DP  RH WIND       PRES   REMARKS
Central Park   CLOUDY    30  29  96 CALM      29.74F FOG
Bronx Bot Gard   N/A     32  30  93 W5        29.74R WCI  27
Bronx Lehman C   N/A     32  30  93 NW6         N/A  WCI  26
LaGuardia APRT CLOUDY    33  30  88 N10       29.72F WCI  25
Queens College   N/A     32  32 100 N8          N/A  WCI  25
Kennedy INTL   LGT SNOW  32  31  96 NW13      29.73F FOG     WCI  22
Breezy Point     N/A    N/A N/A N/A NW9G17      N/A
Brooklyn Coll    N/A     32  32 100 NW7         N/A  WCI  26
Staten Island    N/A     32  32 100 NW5         N/A  WCI  27
Newark/Liberty FLURRIES  32  28  85 NW10      29.75R WCI  24
Teterboro      LGT SNOW  31  28  89 NW6       29.73S FOG     WCI  25
$$

NYZ177-179-078>081-100500-
LONG ISLAND NEW YORK

CITY           SKY/WX    TMP DP  RH WIND       PRES   REMARKS
Jones Beach      N/A     32 N/A N/A NW15        N/A  WCI  22
Wantagh          N/A     32  32 100 NW7         N/A  WCI  26
Matinecock PT    N/A     34 N/A N/A N16         N/A  WCI  23
Farmingdale    LGT SNOW  32  30  92 NW8       29.70F FOG     WCI  25
MacArthur/ISP  LGT SNOW  33  32  96 N8        29.68S FOG     WCI  26
Shirley        LGT SNOW  33  33 100 NW7       29.69F FOG     WCI  27
Mt Sinai Harb    N/A    N/A N/A N/A N9G16       N/A
Westhampton    LGT SNOW  33  31  92 NW7       29.68F FOG     WCI  27
East Hampton   FLURRIES  32  31  97 NW6       29.65F WCI  27
Southold         N/A     34  32  93 N8          N/A  WCI  27
Montauk          N/A     37  34  89 N9        29.64S WCI  30
$$

NYZ052-065-067-100500-
HUDSON VALLEY

CITY           SKY/WX    TMP DP  RH WIND       PRES   REMARKS
White Plains   FLURRIES  30  27  88 NW13      29.69S WCI  20
Larchmont Harb   N/A    N/A N/A N/A NW12G17     N/A
Croton On Huds   N/A    N/A N/A N/A N3          N/A
Somers           N/A     30  27  86 NW5         N/A  WCI  25
Brewster         N/A     28  27  93 N8          N/A  WCI  20
Newburgh       LGT SNOW  27  27 100 CALM      29.73S
Montgomery     LGT SNOW  27  26  96 CALM      29.71F FOG
Otisville        N/A     28  28 100 S2          N/A
Warwick          N/A     28  27  93 SE1         N/A
Suffern          N/A     30  27  86 NW2         N/A
Poughkeepsie   LGT SNOW  28  26  92 CALM      29.73S FOG
Albany         LGT SNOW  28  25  88 NW3       29.74S VSB 1
$$

NJZ001-105-106-008-010-013-015-019>022-104-100500-
NEW JERSEY

CITY           SKY/WX    TMP DP  RH WIND       PRES   REMARKS
Newark/Liberty FLURRIES  32  28  85 NW10      29.75R WCI  24
Teterboro      LGT SNOW  31  28  89 NW6       29.73S FOG     WCI  25
Caldwell       FLURRIES  29  28  96 CALM      29.75R
Somerville     CLOUDY    29  28  96 CALM      29.73S
Linden         FLURRIES  31  28  90 CALM      29.75R
Perth Amboy      N/A    N/A N/A N/A NW9         N/A
Sussex         CLOUDY    27  26  96 CALM      29.72S
Andover        NOT AVBL
Trenton        LGT SNOW  30  28  92 NW5       29.75S FOG     WCI  25
Millville      LGT SNOW  30  30 100 W8        29.78S FOG     WCI  22
Atlantic City  LGT SNOW  31  31 100 NW8       29.76S FOG     WCI  23
Wrightstown    LGT SNOW  30  28  93 W8        29.73S WCI  22
Toms River     FLURRIES  30  29  96 NW8       29.76R WCI  22
Belmar         FLURRIES  30  29  96 W7        29.74S WCI  23
$$

PAZ047>061-062-071-100500-
EASTERN PENNSYLVANIA

CITY           SKY/WX    TMP DP  RH WIND       PRES   REMARKS
Philadelphia   LGT SNOW  31  28  89 W6        29.79S FOG     WCI  25
Allentown      PTCLDY    27  23  85 W7        29.76R FOG     WCI  19
Scranton       CLEAR     23  22  96 S3        29.73S
$$

CTZ002-004>006-009-010-012-RIZ004-006-007-MAZ004-011-015-100500-
SOUTHERN NEW ENGLAND
 IN CT

CITY           SKY/WX    TMP DP  RH WIND       PRES   REMARKS
Bradley INTL   LGT SNOW  30  28  92 N8        29.68S FOG     WCI  22
Hartford       LGT SNOW  31  29  92 N6        29.69S FOG     WCI  25
Danbury        LGT SNOW  30  26  85 CALM      29.71S FOG
Wtrbury/Oxford LGT SNOW  28  27  96 NW7       29.67S FOG     WCI  21
Norwalk Harbor   N/A    N/A N/A N/A NW13        N/A
Bridgeport     LGT SNOW  32  29  88 NW9       29.69F FOG     WCI  24
Meriden        LGT SNOW  30  28  92 N6        29.69R FOG     WCI  24
New Haven      FLURRIES  32  30  92 N8        29.68S WCI  25
Chester        LGT SNOW  30  28  93 NW9       29.64F WCI  22
Groton         FLURRIES  32  29  88 N12       29.64S WCI  23
Wilimantic     LGT SNOW  32  29  88 CALM      29.67R FOG

 IN RI

CITY           SKY/WX    TMP DP  RH WIND       PRES   REMARKS
Providence     FLURRIES  32  31  96 NW8       29.63S WCI  25
Block Island   LGT RAIN  35  33  92 N14       29.62R WCI  26
Westerly       CLOUDY    33  31  92 N10       29.64R WCI  25
 IN MA

CITY           SKY/WX    TMP DP  RH WIND       PRES   REMARKS
Boston         LGT SNOW  32  30  92 NW12      29.63S VSB 1   WCI  23
Worcester      LGT SNOW  28  25  88 N9        29.60F FOG     WCI  19
Westfield      LGT SNOW  30  29  96 N6        29.68F FOG     WCI  24
Provincetown   LGT RAIN  39  37  92 N18G28    29.57R WCI  30
Nantucket      LGT RAIN  41  41 100 N20G29    29.52S FOG
$$

ANZ330-335-338-340-345-350-353-355-100500-
COASTAL MARINE OBSERVATIONS


STATION/POSITION TIME  SKY/WX   TEMP    WIND        PRES    VSBY  WAVE
                                AIR SEA DIR/SP/G                  HT/PER
                 (UTC)          (F)     (DEG/KT/KT) (MB)    (MI)  (FT/S)
NY HARB ENTRANCE 0250            36 52  350/ 14/ 17 1005.5          4/ 7
20 S FIRE ISLAND 0250            38 53  350/ 14/ 16 1005.2          6/ 6
GREAT SOUTH BAY  0330            34 45  330/ 10/ 12   N/A
HUDSON CANYON    0250            45 56  360/ 17/ 21 1003.1         11/ 8
KINGS POINT      0330            32 46   20/ 14/ 17 1007.3
EXECUTION ROCKS  0330            34     340/ 14/ 19   N/A
WESTERN LI SOUND 0319            32     330/ 14/ 17   N/A           1/ 4
CENTRAL LI SOUND NOT AVBL
ROBBINS REEF     0348            31     330/  7/ 10 1007.5
$$


>>>>>>>>>>>>>>>>>>>>>>>>>>>> KEY <<<<<<<<<<<<<<<<<<<<<<<<<<<
>                                                          <
>     SKY/WX - Sky Condition/Present Weather               <
>     TMP    - Temperature in Fahrenheit                   <
>     DP     - Dew Point in Fahrenheit                     <
>     RH     - Relative Humidity in Percent                <
>     WIND   - Direction (from) and Speed in MPH           <
>     PRES   - Mean Sea Level Pressure (inches of Hg)      <
>     WCI    - Wind Chill Index                            <
>     VSB    - VISIBILITY IN MILES                         <
>     HX     - HEAT INDEX                                  <
>     TC     - TEMPERATURE IN CELSIUS                      <
>     VRB    - VARIABLE WIND DIRECTION                     <
>                                                          <
>>>>>>>>>>>>>>>>>>>>>>>>>>>> KEY <<<<<<<<<<<<<<<<<<<<<<<<<<<




USA.gov is the U.S. government's official web portal to all federal, state and local government web resources and services.